Weather History for KSFY - July, 2013

Change the Weather History Date:

Friday, July 19, 2013

  Actual Average (KCWI) Record (KCWI)
Temperature  
Mean Temperature 82 °F -  
Max Temperature 94 °F 86 °F 97 °F (1991)
Min Temperature 70 °F 66 °F 48 °F (2003)
Cooling Degree Days 18    
Growing Degree Days 32 (Base 50)    
Moisture  
Dew Point 70 °F    
Average Humidity 63    
Maximum Humidity 90    
Minimum Humidity 43    
Precipitation  
Precipitation 0.00 in - - ()
Sea Level Pressure  
Sea Level Pressure 29.86 in    
Wind  
Wind Speed 9 mph (SW)    
Max Wind Speed 15 mph    
Max Gust Speed 24 mph    
Visibility 10 miles    
Events Thunderstorm    
Averages and records for this station are not official NWS values.
T = Trace of Precipitation, MM = Missing Value Source: NWS Daily Summary

Daily Weather History Graph

Daily Weather History Graph

Search for Another Location

Airport or City:

Trip Planner

Search our weather history database for the weather conditions in past years. The results will help you decide how hot, cold, wet, or windy it might be!

Date:

Astronomy

Jul. 19, 2013 Rise Set
Actual Time 5:41 AM CDT 8:31 PM CDT
Civil Twilight 5:08 AM CDT 9:04 PM CDT
Nautical Twilight 4:27 AM CDT 9:45 PM CDT
Astronomical Twilight 3:38 AM CDT 10:33 PM CDT
Moon 5:33 PM CDT (7/19) 2:23 AM CDT (7/19)
Length of Visible Light 15h 55m
Length of Day
14h 49m
Waxing Gibbous, 87% of the Moon is Illuminated
Jul 19
Waxing Gibbous
Jul 22
Full
Jul 29
Last Quarter
Aug 6
New
Aug 14
First Quarter

Hourly Weather History & Observations

Time (CDT) Temp. Heat Index Dew Point Humidity Pressure Visibility Wind Dir Wind Speed Gust Speed Precip Events Conditions
12:15 AM 75.6 °F - 72.1 °F 89% 29.94 in 10.0 mi SSE 6.9 mph - N/A   Clear
12:35 AM 76.1 °F - 72.1 °F 87% 29.94 in 10.0 mi South 6.9 mph - N/A   Clear
12:55 AM 75.7 °F - 71.8 °F 87% 29.93 in 10.0 mi SSE 5.8 mph - N/A   Clear
1:15 AM 75.4 °F - 71.4 °F 87% 29.94 in 10.0 mi South 5.8 mph - N/A   Clear
1:35 AM 75.0 °F - 71.6 °F 89% 29.93 in 10.0 mi South 5.8 mph - N/A   Clear
1:55 AM 80.2 °F 84.0 °F 71.6 °F 75% 29.92 in 10.0 mi SSW 9.2 mph - N/A   Clear
2:15 AM 80.6 °F 84.4 °F 71.2 °F 73% 29.92 in 10.0 mi SSW 10.4 mph - N/A   Clear
2:35 AM 80.4 °F 84.1 °F 71.1 °F 73% 29.91 in 10.0 mi SSW 8.1 mph - N/A   Clear
2:55 AM 80.1 °F 83.4 °F 70.7 °F 73% 29.91 in 10.0 mi SSW 10.4 mph - N/A   Clear
3:15 AM 80.1 °F 83.3 °F 70.3 °F 72% 29.91 in 10.0 mi SSW 10.4 mph - N/A   Clear
3:35 AM 80.1 °F 83.2 °F 70.0 °F 71% 29.90 in 10.0 mi SSW 11.5 mph - N/A   Clear
3:55 AM 79.7 °F - 69.8 °F 72% 29.89 in 10.0 mi SSW 9.2 mph - N/A   Clear
4:15 AM 80.1 °F 82.9 °F 69.3 °F 69% 29.88 in 10.0 mi SW 9.2 mph 16.1 mph N/A   Clear
4:35 AM 80.1 °F 82.9 °F 68.9 °F 69% 29.88 in 10.0 mi SW 11.5 mph 17.3 mph N/A   Clear
4:55 AM 79.7 °F - 68.9 °F 69% 29.88 in 10.0 mi SSW 10.4 mph 16.1 mph N/A   Clear
5:15 AM 79.7 °F - 68.9 °F 69% 29.88 in 10.0 mi SSW 9.2 mph 17.3 mph N/A   Clear
5:35 AM 79.2 °F - 68.9 °F 71% 29.89 in 10.0 mi SSW 11.5 mph - N/A   Clear
5:55 AM 79.3 °F - 68.9 °F 70% 29.88 in 10.0 mi SW 11.5 mph - N/A   Clear
6:15 AM 79.7 °F - 68.9 °F 69% 29.88 in 10.0 mi SW 11.5 mph 19.6 mph N/A   Clear
6:35 AM 80.1 °F 82.9 °F 69.3 °F 69% 29.89 in 10.0 mi SW 11.5 mph - N/A   Scattered Clouds
6:55 AM 80.1 °F 83.2 °F 69.8 °F 71% 29.89 in 10.0 mi SW 11.5 mph - N/A   Overcast
7:15 AM 81.3 °F 84.8 °F 69.8 °F 68% 29.89 in 10.0 mi SW 11.5 mph 17.3 mph N/A   Overcast
7:35 AM 81.5 °F 84.9 °F 69.6 °F 67% 29.89 in 10.0 mi SW 12.7 mph 19.6 mph N/A   Scattered Clouds
7:55 AM 81.9 °F 85.6 °F 69.8 °F 67% 29.89 in 10.0 mi SW 11.5 mph 18.4 mph N/A   Clear
8:15 AM 83.1 °F 87.1 °F 70.0 °F 64% 29.89 in 10.0 mi SW 10.4 mph - N/A   Clear
8:35 AM 84.0 °F 87.8 °F 69.4 °F 61% 29.90 in 10.0 mi WSW 12.7 mph 17.3 mph N/A   Scattered Clouds
8:55 AM 84.4 °F 88.2 °F 68.9 °F 60% 29.90 in 10.0 mi SW 10.4 mph - N/A   Scattered Clouds
9:15 AM 84.2 °F 87.9 °F 68.9 °F 60% 29.91 in 10.0 mi WSW 11.5 mph 17.3 mph N/A   Mostly Cloudy
9:35 AM 86.2 °F 90.4 °F 69.3 °F 57% 29.90 in 10.0 mi WSW 10.4 mph 16.1 mph N/A   Mostly Cloudy
9:55 AM 85.3 °F 89.4 °F 69.6 °F 59% 29.89 in 10.0 mi SW 11.5 mph - N/A   Mostly Cloudy
10:15 AM 87.4 °F 91.5 °F 69.1 °F 54% 29.89 in 10.0 mi SW 10.4 mph 19.6 mph N/A   Scattered Clouds
10:35 AM 89.1 °F 92.9 °F 68.4 °F 50% 29.88 in 10.0 mi SW 13.8 mph 24.2 mph N/A   Clear
10:55 AM 90.0 °F 94.1 °F 68.5 °F 49% 29.87 in 10.0 mi SW 12.7 mph 18.4 mph N/A   Clear
11:15 AM 90.5 °F 94.6 °F 68.4 °F 48% 29.87 in 10.0 mi SW 13.8 mph 17.3 mph N/A   Clear
11:35 AM 90.5 °F 95.5 °F 69.6 °F 50% 29.86 in 10.0 mi SW 15.0 mph 19.6 mph N/A   Clear
11:55 AM 90.9 °F 95.3 °F 68.9 °F 48% 29.86 in 10.0 mi SW 12.7 mph - N/A   Clear
12:15 PM 91.9 °F 97.4 °F 69.8 °F 48% 29.86 in 10.0 mi SW 12.7 mph - N/A   Clear
12:35 PM 91.6 °F 96.7 °F 69.3 °F 48% 29.85 in 10.0 mi SW 12.7 mph 18.4 mph N/A   Clear
12:55 PM 91.8 °F 97.5 °F 70.0 °F 49% 29.85 in 10.0 mi SW 8.1 mph - N/A   Clear
1:15 PM 92.5 °F 97.9 °F 69.6 °F 47% 29.85 in 10.0 mi SW 13.8 mph - N/A   Clear
1:35 PM 91.4 °F 96.3 °F 68.9 °F 48% 29.84 in 10.0 mi WSW 9.2 mph 18.4 mph N/A   Clear
1:55 PM 91.9 °F 96.9 °F 68.9 °F 47% 29.83 in 10.0 mi WSW 11.5 mph 19.6 mph N/A   Clear
2:15 PM 92.8 °F 98.6 °F 69.6 °F 47% 29.83 in 10.0 mi SW 13.8 mph 18.4 mph N/A   Clear
2:35 PM 94.1 °F 99.5 °F 69.1 °F 44% 29.83 in 10.0 mi WSW 11.5 mph 16.1 mph N/A   Clear
2:55 PM 94.1 °F 99.5 °F 69.1 °F 44% 29.82 in 10.0 mi WSW 13.8 mph - N/A   Clear
3:15 PM 94.1 °F 99.5 °F 69.3 °F 44% 29.82 in 10.0 mi WSW 12.7 mph 21.9 mph N/A   Clear
3:35 PM 93.4 °F 98.6 °F 69.3 °F 45% 29.82 in 10.0 mi WSW 13.8 mph - N/A   Scattered Clouds
3:55 PM 93.9 °F 100.3 °F 70.2 °F 46% 29.81 in 10.0 mi West 6.9 mph - N/A   Scattered Clouds
4:15 PM 94.1 °F 98.9 °F 68.5 °F 43% 29.81 in 10.0 mi WSW 12.7 mph 21.9 mph N/A   Scattered Clouds
4:35 PM 94.3 °F 99.8 °F 69.6 °F 44% 29.79 in 10.0 mi WSW 11.5 mph 17.3 mph N/A   Scattered Clouds
4:55 PM 93.7 °F 100.5 °F 70.5 °F 47% 29.79 in 10.0 mi WSW 10.4 mph 16.1 mph N/A   Scattered Clouds
5:15 PM 93.2 °F 99.9 °F 71.1 °F 48% 29.79 in 10.0 mi West 9.2 mph 16.1 mph N/A   Scattered Clouds
5:35 PM 92.8 °F 100.3 °F 71.6 °F 50% 29.78 in 10.0 mi West 9.2 mph - N/A   Clear
5:55 PM 93.2 °F 101.1 °F 72.3 °F 50% 29.78 in 10.0 mi West 11.5 mph - N/A   Clear
6:15 PM 91.6 °F 98.2 °F 71.2 °F 51% 29.78 in 10.0 mi West 10.4 mph 16.1 mph N/A   Scattered Clouds
6:35 PM 90.5 °F 97.5 °F 71.8 °F 54% 29.77 in 10.0 mi West 8.1 mph - N/A   Mostly Cloudy
6:55 PM 91.4 °F 98.9 °F 72.0 °F 53% 29.78 in 10.0 mi West 10.4 mph 17.3 mph N/A Thunderstorm Thunderstorm
7:15 PM 89.6 °F 96.6 °F 72.1 °F 56% 29.79 in 10.0 mi SSW 8.1 mph - N/A Thunderstorm Overcast
7:35 PM 85.8 °F 90.8 °F 70.3 °F 60% 29.79 in 10.0 mi Calm Calm - N/A Thunderstorm Thunderstorm
7:55 PM 85.6 °F 91.5 °F 71.6 °F 63% 29.79 in 10.0 mi SE 4.6 mph - N/A   Overcast
8:15 PM 83.7 °F 89.2 °F 72.0 °F 68% 29.78 in 10.0 mi Calm Calm - N/A   Mostly Cloudy
8:35 PM 82.8 °F 88.4 °F 72.9 °F 72% 29.80 in 10.0 mi Calm Calm - N/A   Overcast
8:55 PM 84.2 °F 89.3 °F 71.1 °F 65% 29.81 in 10.0 mi SW 5.8 mph - N/A   Mostly Cloudy
9:15 PM 81.7 °F 83.6 °F 65.7 °F 58% 29.82 in 10.0 mi SW 6.9 mph - N/A   Scattered Clouds
9:35 PM 79.0 °F - 66.2 °F 65% 29.83 in 10.0 mi SE 5.8 mph - N/A   Clear
9:55 PM 75.9 °F - 66.6 °F 73% 29.84 in 10.0 mi Calm Calm - N/A   Clear
10:15 PM 73.9 °F - 68.4 °F 83% 29.84 in 10.0 mi ESE 3.5 mph - N/A   Clear
10:35 PM 73.8 °F - 68.4 °F 83% 29.85 in 10.0 mi Calm Calm - N/A   Clear
10:55 PM 73.0 °F - 67.8 °F 84% 29.85 in 10.0 mi Calm Calm - N/A   Clear
11:15 PM 72.0 °F - 68.4 °F 88% 29.86 in 10.0 mi SSE 3.5 mph - N/A   Clear
11:35 PM 71.6 °F - 68.0 °F 88% 29.86 in 10.0 mi Calm Calm - N/A   Clear
11:55 PM 70.7 °F - 67.6 °F 90% 29.85 in 10.0 mi Calm Calm - N/A   Clear